Location: ??
(35.5386°N, 139.7291°E)
Time: 10:54:42
(UTC+00:00)

Cosmos 2221 - Pass Details

Date: 13 December 2025
Orbit: 569 x 590 km, 82.5° (Epoch: 18 January)

Event Time Altitude Azimuth Distance (km) Brightness Sun altitude
Rises 20:15:23 0° 3° (N) 2,777 5.8 -17.1°
Reaches altitude 10° 20:17:44 10° 13° (NNE) 1,875 5.0 -16.7°
Maximum altitude 20:21:31 34° 79° (E) 939 4.1 -15.9°
Drops below altitude 10° 20:25:17 10° 146° (SE) 1,866 5.8 -15.2°
Sets 20:27:36 0° 155° (SSE) 2,761 6.6 -14.8°
